GW0112 Weather Reports


time (UTC)temp
C
wind
direction
speed
KPH
gust
KPH
rain 1hr
cm
rain 24hr
cm
rain mn
cm
humidity
%
barometer
mb
20260507224042 11 50 1.6 9.7 0.00 0.00 0.00 78 1015.8
20260507223545 11 0 0.0 9.7 0.00 0.00 0.00 77 1016.0
20260507223049 11 115 3.2 9.7 0.00 0.00 0.00 77 1016.1
20260507222543 11 115 3.2 12.9 0.00 0.00 0.00 77 1016.0
20260507222043 11 101 3.2 12.9 0.00 0.00 0.00 77 1016.0
20260507221552 11 123 1.6 11.3 0.00 0.00 0.00 76 1016.0
20260507221038 11 87 3.2 12.9 0.00 0.00 0.00 76 1016.0
20260507220538 11 0 4.8 12.9 0.00 0.00 0.00 76 1016.1
20260507220052 11 124 1.6 9.7 0.00 0.00 0.00 76 1016.0
20260507215540 11 130 3.2 9.7 0.00 0.00 0.00 76 1016.0
20260507215038 11 107 1.6 6.4 0.00 0.00 0.00 76 1016.1
20260507214550 12 115 3.2 11.3 0.00 0.00 0.00 75 1016.1
20260507214039 12 0 3.2 11.3 0.00 0.00 0.00 75 1016.2
20260507213538 12 111 3.2 9.7 0.00 0.00 0.00 75 1016.1
20260507213100 12 85 1.6 9.7 0.00 0.00 0.00 75 1016.2
20260507212539 12 111 1.6 12.9 0.00 0.00 0.00 75 1016.1
20260507212037 12 92 1.6 12.9 0.00 0.00 0.00 75 1016.1
20260507211548 12 94 3.2 12.9 0.00 0.00 0.00 75 1016.1
20260507211037 12 98 0.0 6.4 0.00 0.00 0.00 74 1016.1
20260507210537 12 86 1.6 6.4 0.00 0.00 0.00 74 1016.0
20260507210047 12 86 1.6 6.4 0.00 0.00 0.00 74 1016.0
20260507205537 12 0 0.0 9.7 0.00 0.00 0.00 74 1015.9
20260507205045 12 96 3.2 11.3 0.00 0.00 0.00 74 1015.8
20260507204555 12 94 1.6 11.3 0.00 0.00 0.00 74 1015.8
20260507204037 12 92 4.8 12.9 0.00 0.00 0.00 73 1015.9
20260507203537 12 103 3.2 14.5 0.00 0.00 0.00 73 1015.9
20260507203050 12 133 3.2 14.5 0.00 0.00 0.00 73 1015.8
20260507202538 12 95 3.2 14.5 0.00 0.00 0.00 73 1015.7
20260507202037 12 78 4.8 14.5 0.00 0.00 0.00 73 1015.7
20260507201600 12 85 3.2 14.5 0.00 0.00 0.00 73 1015.6
20260507201039 12 0 3.2 14.5 0.00 0.00 0.00 72 1015.6
20260507200542 12 105 4.8 14.5 0.00 0.00 0.00 72 1015.5
20260507200050 12 115 1.6 9.7 0.00 0.00 0.00 71 1015.4
20260507195537 12 130 3.2 11.3 0.00 0.00 0.00 71 1015.3
20260507195044 13 92 3.2 12.9 0.00 0.00 0.00 70 1015.3
20260507194553 13 126 4.8 14.5 0.00 0.00 0.00 70 1015.2
20260507194042 13 101 8.0 14.5 0.00 0.00 0.00 69 1015.2
20260507193541 13 124 4.8 14.5 0.00 0.00 0.00 69 1015.1
20260507193044 13 142 8.0 14.5 0.00 0.00 0.00 68 1015.1
20260507192540 13 146 8.0 14.5 0.00 0.00 0.00 68 1015.0
20260507192040 13 98 4.8 12.9 0.00 0.00 0.00 67 1015.0
20260507191610 13 0 1.6 11.3 0.00 0.00 0.00 66 1015.0
20260507191041 13 105 6.4 11.3 0.00 0.00 0.00 66 1015.0
20260507190543 13 105 4.8 11.3 0.00 0.00 0.00 64 1014.9
20260507190052 13 115 1.6 14.5 0.00 0.00 0.00 64 1014.9
20260507185542 13 113 4.8 16.1 0.00 0.00 0.00 63 1015.0
20260507185042 13 132 6.4 16.1 0.00 0.00 0.00 63 1014.9
20260507184602 13 130 3.2 12.9 0.00 0.00 0.00 64 1014.9
20260507184044 13 117 3.2 14.5 0.00 0.00 0.00 64 1014.7
20260507183542 13 125 6.4 17.7 0.00 0.00 0.00 64 1014.8
20260507183049 13 136 8.0 19.3 0.00 0.00 0.00 64 1014.8
20260507182541 13 142 9.7 19.3 0.00 0.00 0.00 63 1014.7
20260507182042 13 134 6.4 19.3 0.00 0.00 0.00 63 1014.7
20260507181548 13 130 9.7 19.3 0.00 0.00 0.00 62 1014.7
20260507181042 13 150 9.7 19.3 0.00 0.00 0.00 62 1014.6
20260507180540 13 169 8.0 17.7 0.00 0.00 0.00 61 1014.6
20260507180047 14 120 4.8 17.7 0.00 0.00 0.00 61 1014.5
20260507175546 14 115 6.4 17.7 0.00 0.00 0.00 61 1014.5
20260507175041 14 143 6.4 16.1 0.00 0.00 0.00 61 1014.5
20260507174549 14 126 4.8 19.3 0.00 0.00 0.00 62 1014.5
20260507174042 14 124 8.0 19.3 0.00 0.00 0.00 61 1014.5
20260507173542 14 108 8.0 17.7 0.00 0.00 0.00 62 1014.5
20260507173050 14 103 4.8 16.1 0.00 0.00 0.00 62 1014.4
20260507172541 14 128 6.4 16.1 0.00 0.00 0.00 61 1014.4
20260507172043 14 123 8.0 17.7 0.00 0.00 0.00 61 1014.4
20260507171554 14 128 8.0 17.7 0.00 0.00 0.00 61 1014.4
20260507171042 14 100 8.0 17.7 0.00 0.00 0.00 61 1014.4
20260507170542 14 96 9.7 19.3 0.00 0.00 0.00 60 1014.4
20260507170052 14 110 11.3 19.3 0.00 0.00 0.00 60 1014.4
20260507165541 15 135 9.7 17.7 0.00 0.00 0.00 60 1014.4
20260507165042 15 107 8.0 16.1 0.00 0.00 0.00 59 1014.4
20260507164605 15 93 6.4 19.3 0.00 0.00 0.00 58 1014.4
20260507164042 15 77 4.8 19.3 0.00 0.00 0.00 60 1014.3
20260507163541 15 85 6.4 19.3 0.00 0.00 0.00 59 1014.3
20260507163052 15 24 6.4 14.5 0.00 0.00 0.00 59 1014.3
20260507162541 15 57 6.4 16.1 0.00 0.00 0.00 59 1014.3
20260507162042 15 63 6.4 16.1 0.00 0.00 0.00 59 1014.2
20260507161554 15 90 4.8 12.9 0.00 0.00 0.00 58 1014.4
20260507161041 15 54 4.8 9.7 0.00 0.00 0.00 54 1014.4
20260507160541 15 154 4.8 12.9 0.00 0.00 0.00 51 1014.3
20260507160048 15 94 4.8 20.9 0.00 0.00 0.00 56 1014.3
20260507155543 15 82 9.7 20.9 0.00 0.00 0.00 52 1014.3
20260507155042 15 61 6.4 14.5 0.00 0.00 0.00 55 1014.3
20260507154549 16 115 3.2 14.5 0.00 0.00 0.00 55 1014.4
20260507154043 16 80 4.8 24.1 0.00 0.00 0.00 52 1014.5
20260507153544 16 114 8.0 24.1 0.00 0.00 0.00 49 1014.4
20260507153050 17 130 3.2 14.5 0.00 0.00 0.00 51 1014.4
20260507152542 17 99 4.8 14.5 0.00 0.00 0.00 53 1014.4
20260507152044 17 85 4.8 14.5 0.00 0.00 0.00 51 1014.5
20260507151550 17 75 3.2 12.9 0.00 0.00 0.00 53 1014.5
20260507151042 16 77 1.6 11.3 0.00 0.00 0.00 53 1014.6
20260507150541 15 0 3.2 11.3 0.00 0.00 0.00 51 1014.6
20260507150050 15 0 0.0 11.3 0.00 0.00 0.00 49 1014.6
20260507145540 15 171 4.8 11.3 0.00 0.00 0.00 50 1014.5
20260507145041 15 184 4.8 12.9 0.00 0.00 0.00 52 1014.6
20260507144549 15 150 6.4 12.9 0.00 0.00 0.00 52 1014.6
20260507144041 15 195 1.6 12.9 0.00 0.00 0.00 56 1014.5
20260507143540 15 317 4.8 12.9 0.00 0.00 0.00 55 1014.5
20260507143104 16 93 1.6 12.9 0.00 0.00 0.00 52 1014.5
20260507142540 15 165 3.2 12.9 0.00 0.00 0.00 54 1014.5
20260507142040 15 65 3.2 11.3 0.00 0.00 0.00 52 1014.5
20260507141604 15 0 3.2 11.3 0.00 0.00 0.00 53 1014.5
20260507141040 15 105 3.2 12.9 0.00 0.00 0.00 51 1014.6
20260507140544 15 105 3.2 14.5 0.00 0.00 0.00 51 1014.7
20260507140047 15 151 4.8 14.5 0.00 0.00 0.00 52 1014.7
20260507135540 16 111 4.8 14.5 0.00 0.00 0.00 51 1014.7
20260507135041 16 78 3.2 14.5 0.00 0.00 0.00 56 1014.8
20260507134553 15 34 4.8 14.5 0.00 0.00 0.00 57 1014.8
20260507134040 15 0 3.2 12.9 0.00 0.00 0.00 59 1014.7
20260507133541 15 23 4.8 17.7 0.00 0.00 0.00 60 1014.9
20260507133050 15 30 4.8 17.7 0.00 0.00 0.00 59 1014.8
20260507132540 15 351 6.4 17.7 0.00 0.00 0.00 56 1014.6
20260507132040 15 355 3.2 14.5 0.00 0.00 0.00 59 1014.7
20260507131600 15 37 6.4 14.5 0.00 0.00 0.00 57 1014.7
20260507131041 15 19 6.4 12.9 0.00 0.00 0.00 58 1014.7
20260507130541 16 11 3.2 17.7 0.00 0.00 0.00 54 1014.7
20260507130049 16 325 6.4 17.7 0.00 0.00 0.00 53 1014.7
20260507125540 17 332 8.0 17.7 0.00 0.00 0.00 55 1014.8
20260507125045 18 35 3.2 11.3 0.00 0.00 0.00 50 1014.9
20260507124548 18 233 1.6 14.5 0.00 0.00 0.00 52 1014.8
20260507124040 17 255 6.4 14.5 0.00 0.00 0.00 55 1014.9
20260507123541 17 200 6.4 12.9 0.00 0.00 0.00 56 1014.9
20260507123109 16 184 4.8 12.9 0.00 0.00 0.00 49 1014.9
20260507122540 17 132 3.2 12.9 0.00 0.00 0.00 50 1014.9
20260507122040 16 197 6.4 12.9 0.00 0.00 0.00 59 1015.0
20260507121550 16 174 3.2 11.3 0.00 0.00 0.00 50 1015.1
20260507121041 15 21 1.6 12.9 0.00 0.00 0.00 52 1015.0
20260507120540 15 182 4.8 12.9 0.00 0.00 0.00 52 1015.0
20260507120052 16 178 3.2 16.1 0.00 0.00 0.00 48 1015.3
20260507115541 18 258 8.0 16.1 0.00 0.00 0.00 54 1015.3
20260507115042 17 214 4.8 14.5 0.00 0.00 0.00 59 1015.2
20260507114553 15 0 1.6 12.9 0.00 0.00 0.00 56 1015.3
20260507114041 15 120 4.8 14.5 0.00 0.00 0.00 52 1015.2
20260507113543 16 196 4.8 14.5 0.00 0.00 0.00 60 1015.3
20260507113046 16 182 0.0 8.0 0.00 0.00 0.00 55 1015.2
20260507112542 16 271 0.0 6.4 0.00 0.00 0.00 56 1015.3
20260507112042 16 0 1.6 9.7 0.00 0.00 0.00 58 1015.4
20260507111549 16 0 1.6 9.7 0.00 0.00 0.00 55 1015.4
20260507111043 16 0 4.8 14.5 0.00 0.00 0.00 52 1015.4
20260507110542 17 158 6.4 14.5 0.00 0.00 0.00 53 1015.4
20260507110056 17 204 4.8 12.9 0.00 0.00 0.00 61 1015.5
20260507105541 15 169 1.6 12.9 0.00 0.00 0.00 56 1015.6
20260507105041 15 101 4.8 12.9 0.00 0.00 0.00 54 1015.6
20260507104549 15 116 3.2 12.9 0.00 0.00 0.00 57 1015.6
20260507104041 15 182 4.8 12.9 0.00 0.00 0.00 55 1015.5
20260507103541 15 137 1.6 11.3 0.00 0.00 0.00 56 1015.6
20260507103048 15 194 3.2 11.3 0.00 0.00 0.00 66 1015.7
20260507102541 15 171 1.6 14.5 0.00 0.00 0.00 61 1015.7
20260507102040 15 144 4.8 17.7 0.00 0.00 0.00 59 1015.7
20260507101546 16 184 8.0 17.7 0.00 0.00 0.00 63 1015.7
20260507101041 16 190 3.2 11.3 0.00 0.00 0.00 67 1015.7
20260507100542 15 184 4.8 16.1 0.00 0.00 0.00 65 1015.7
20260507100055 13 226 6.4 16.1 0.00 0.00 0.00 67 1015.7
20260507095541 14 197 3.2 11.3 0.00 0.00 0.00 65 1015.7
20260507095041 15 150 3.2 14.5 0.00 0.00 0.00 62 1015.7
20260507094551 13 180 6.4 14.5 0.00 0.00 0.00 63 1015.7
20260507094043 13 180 1.6 11.3 0.00 0.00 0.00 65 1015.7
20260507093541 13 169 3.2 14.5 0.00 0.00 0.00 63 1015.7
20260507093050 13 0 4.8 14.5 0.00 0.00 0.00 66 1015.7
20260507092540 13 128 4.8 11.3 0.00 0.00 0.00 65 1015.6
20260507092040 13 97 1.6 11.3 0.00 0.00 0.00 66 1015.7
20260507091550 13 169 3.2 12.9 0.00 0.00 0.00 67 1015.7
20260507091041 13 113 4.8 12.9 0.00 0.00 0.00 66 1015.8
20260507090541 13 175 3.2 9.7 0.00 0.00 0.00 67 1015.8
20260507090057 13 189 4.8 12.9 0.00 0.00 0.00 74 1015.9
20260507085543 12 186 4.8 12.9 0.00 0.00 0.00 77 1015.8
20260507085040 11 188 6.4 12.9 0.00 0.00 0.00 76 1015.8
20260507084555 11 0 4.8 12.9 0.00 0.00 0.00 76 1015.8
20260507084041 11 0 3.2 11.3 0.00 0.00 0.00 76 1015.8
20260507083542 11 0 1.6 11.3 0.00 0.00 0.00 75 1015.7
20260507083052 12 125 4.8 11.3 0.00 0.00 0.00 77 1015.8
20260507082542 11 99 6.4 14.5 0.00 0.00 0.00 79 1015.7
20260507082043 11 120 4.8 14.5 0.00 0.00 0.00 78 1015.8
20260507081555 11 57 6.4 14.5 0.00 0.00 0.00 78 1015.7
20260507081042 12 189 3.2 12.9 0.00 0.00 0.00 79 1015.7
20260507080541 12 136 3.2 12.9 0.00 0.00 0.00 79 1015.8
20260507075541 11 182 0.0 6.4 0.00 0.00 0.00 86 1015.6
20260507075041 11 0 0.0 6.4 0.00 0.00 0.00 88 1015.7
20260507074549 10 0 0.0 8.0 0.00 0.00 0.00 88 1015.7
20260507074040 10 149 1.6 8.0 0.00 0.00 0.00 89 1015.7
20260507073544 10 0 0.0 4.8 0.00 0.00 0.00 90 1015.7
20260507073043 10 0 0.0 3.2 0.00 0.00 0.00 90 1015.7
20260507072540 10 118 0.0 3.2 0.00 0.00 0.00 91 1015.6
20260507072040 10 0 0.0 3.2 0.00 0.00 0.00 91 1015.5
20260507071542 10 0 0.0 4.8 0.00 0.00 0.00 92 1015.6
20260507071043 9 0 0.0 4.8 0.00 0.00 0.00 92 1015.7
20260507070541 9 0 0.0 0.0 0.00 0.00 0.00 92 1015.7
20260507065542 9 0 0.0 3.2 0.00 0.00 0.00 92 1015.6
20260507065040 8 0 0.0 3.2 0.00 0.00 0.00 93 1015.6
20260507064621 8 0 0.0 3.2 0.00 0.00 0.00 93 1015.6
20260507064041 8 0 0.0 3.2 0.00 0.00 0.00 93 1015.5
20260507063541 8 0 0.0 3.2 0.00 0.00 0.00 93 1015.5
20260507063051 8 0 0.0 0.0 0.00 0.00 0.00 93 1015.5
20260507062541 8 0 0.0 0.0 0.00 0.00 0.00 93 1015.5
20260507062042 8 0 0.0 0.0 0.00 0.00 0.00 93 1015.4
20260507061545 7 0 0.0 0.0 0.00 0.00 0.00 93 1015.4
20260507061042 7 0 0.0 0.0 0.00 0.00 0.00 93 1015.5
20260507060541 7 0 0.0 0.0 0.00 0.00 0.00 93 1015.4
20260507060107 7 0 0.0 0.0 0.00 0.00 0.00 93 1015.3
20260507055543 6 0 0.0 0.0 0.00 0.00 0.00 92 1015.2
20260507055041 6 0 0.0 0.0 0.00 0.00 0.00 92 1015.3
20260507054557 6 0 0.0 0.0 0.00 0.00 0.00 92 1015.3
20260507054041 6 0 0.0 0.0 0.00 0.00 0.00 92 1015.2
20260507053541 6 0 0.0 0.0 0.00 0.00 0.00 92 1015.1
20260507053048 6 0 0.0 0.0 0.00 0.00 0.00 92 1015.2
20260507052540 5 0 0.0 0.0 0.00 0.00 0.00 92 1015.1
20260507052041 5 0 0.0 0.0 0.00 0.00 0.00 92 1015.1
20260507051603 5 0 0.0 0.0 0.00 0.00 0.00 92 1015.1
20260507051042 5 0 0.0 0.0 0.00 0.00 0.00 92 1015.0
20260507050541 5 0 0.0 0.0 0.00 0.00 0.00 92 1015.0
20260507050052 5 0 0.0 0.0 0.00 0.00 0.00 92 1015.0
20260507045540 5 0 0.0 0.0 0.00 0.00 0.00 92 1015.0
20260507045040 5 0 0.0 0.0 0.00 0.00 0.00 91 1015.1
20260507044556 5 0 0.0 0.0 0.00 0.00 0.00 91 1015.0
20260507044043 5 0 0.0 0.0 0.00 0.00 0.00 91 1015.0
20260507043541 5 0 0.0 0.0 0.00 0.00 0.00 91 1015.0
20260507043055 5 0 0.0 0.0 0.00 0.00 0.00 91 1015.0
20260507042541 5 0 0.0 0.0 0.00 0.00 0.00 91 1015.0
20260507042040 5 0 0.0 0.0 0.00 0.00 0.00 91 1015.0
20260507041543 5 0 0.0 1.6 0.00 0.00 0.00 91 1015.0
20260507041041 5 0 0.0 1.6 0.00 0.00 0.00 91 1015.1
20260507040541 5 0 0.0 0.0 0.00 0.00 0.00 91 1015.0
20260507040051 5 0 0.0 1.6 0.00 0.00 0.00 91 1015.0
20260507035540 5 0 0.0 1.6 0.00 0.00 0.00 90 1015.0
20260507035040 5 0 0.0 0.0 0.00 0.00 0.00 90 1015.0
20260507034547 5 0 0.0 0.0 0.00 0.00 0.00 91 1015.0
20260507034041 5 0 0.0 0.0 0.00 0.00 0.00 91 1015.0
20260507033541 5 0 0.0 0.0 0.00 0.00 0.00 91 1014.9
20260507033048 5 0 0.0 0.0 0.00 0.00 0.00 91 1014.9
20260507032541 5 0 0.0 0.0 0.00 0.00 0.00 91 1015.0
20260507032044 5 0 0.0 0.0 0.00 0.00 0.00 91 1015.0
20260507031547 5 0 0.0 0.0 0.00 0.00 0.00 91 1014.9
20260507031043 5 0 0.0 0.0 0.00 0.00 0.00 90 1015.0
20260507030541 5 0 0.0 0.0 0.00 0.00 0.00 90 1015.0
20260507030051 5 0 0.0 0.0 0.00 0.00 0.00 90 1014.9
20260507025540 5 0 0.0 0.0 0.00 0.00 0.00 90 1015.0
20260507025041 5 0 0.0 1.6 0.00 0.00 0.00 90 1015.0
20260507024549 5 0 0.0 1.6 0.00 0.00 0.00 90 1015.0
20260507024040 5 0 0.0 1.6 0.00 0.00 0.00 89 1014.9
20260507023540 5 0 0.0 3.2 0.00 0.00 0.00 89 1014.9
20260507023048 5 0 0.0 3.2 0.00 0.00 0.00 89 1014.8
20260507022542 5 0 0.0 3.2 0.00 0.00 0.00 89 1014.7
20260507022042 5 0 0.0 1.6 0.00 0.00 0.00 89 1014.7
20260507021548 6 0 0.0 4.8 0.00 0.00 0.00 89 1014.6
20260507021043 6 0 0.0 4.8 0.00 0.00 0.00 89 1014.7
20260507020541 6 0 0.0 4.8 0.00 0.00 0.00 89 1014.7
20260507015545 6 0 0.0 4.8 0.00 0.00 0.00 89 1014.7
20260507015044 6 314 0.0 0.0 0.00 0.00 0.00 89 1014.6
20260507014548 6 0 0.0 1.6 0.00 0.00 0.00 89 1014.5
20260507014041 6 0 0.0 1.6 0.00 0.00 0.00 89 1014.6
20260507013543 6 0 0.0 1.6 0.00 0.00 0.00 89 1014.6
20260507013047 6 0 0.0 1.6 0.00 0.00 0.00 88 1014.5
20260507012542 6 0 0.0 1.6 0.00 0.00 0.00 89 1014.6
20260507012041 6 0 0.0 1.6 0.00 0.00 0.00 88 1014.6
20260507011550 6 0 0.0 1.6 0.00 0.00 0.00 88 1014.7
20260507011040 6 0 0.0 0.0 0.00 0.00 0.00 88 1014.7
20260507010541 6 0 0.0 1.6 0.00 0.00 0.00 88 1014.7
20260507010100 6 0 0.0 3.2 0.00 0.00 0.00 88 1014.7
20260507005541 6 0 0.0 3.2 0.00 0.00 0.00 87 1014.7
20260507005041 6 0 0.0 4.8 0.00 0.00 0.00 87 1014.6
20260507004545 6 0 0.0 4.8 0.00 0.00 0.00 87 1014.6
20260507004042 6 348 0.0 3.2 0.00 0.00 0.00 87 1014.7
20260507003541 6 0 0.0 3.2 0.00 0.00 0.00 87 1014.7
20260507003052 6 0 0.0 1.6 0.00 0.00 0.00 86 1014.7
20260507002541 6 0 0.0 0.0 0.00 0.00 0.00 86 1014.9
20260507002042 6 0 0.0 0.0 0.00 0.00 0.00 86 1014.8
20260507001555 6 0 0.0 0.0 0.00 0.00 0.00 86 1014.8
20260507001041 6 0 0.0 0.0 0.00 0.00 0.00 85 1014.8
20260507000541 6 0 0.0 0.0 0.00 0.00 0.00 85 1014.9
20260507000052 6 0 0.0 0.0 0.00 0.00 0.00 85 1014.9
20260506235543 7 0 0.0 0.0 0.00 0.00 0.00 85 1014.9
20260506235041 7 0 0.0 0.0 0.00 0.00 0.00 85 1014.8
20260506234558 7 0 0.0 0.0 0.00 0.00 0.00 84 1014.7
20260506234041 7 0 0.0 3.2 0.00 0.00 0.00 84 1014.7
20260506233545 7 0 0.0 3.2 0.00 0.00 0.00 84 1014.7
20260506233052 7 0 0.0 3.2 0.00 0.00 0.00 84 1014.7
20260506232542 7 308 0.0 3.2 0.00 0.00 0.00 84 1014.6
20260506232041 7 0 0.0 3.2 0.00 0.00 0.00 83 1014.7
20260506231606 7 0 0.0 3.2 0.00 0.00 0.00 83 1014.6
20260506231041 7 0 0.0 3.2 0.00 0.00 0.00 83 1014.6
20260506230541 7 0 0.0 3.2 0.00 0.00 0.00 82 1014.6
20260506230109 8 0 0.0 4.8 0.00 0.00 0.00 82 1014.7
20260506225541 8 0 0.0 4.8 0.00 0.00 0.00 82 1014.6
20260506225041 8 328 0.0 4.8 0.00 0.00 0.00 82 1014.7
20260506224553 8 0 0.0 4.8 0.00 0.00 0.00 81 1014.6